www.pogodaiklimat.ru

Погода и климат >> Архив погоды >> Россия >> город Санкт-Петербург >> Санкт-Петербург


АРХИВ ПОГОДЫ в Санкт-Петербурге

Время (UTC), дата Ветер
(напр.,м/с)
 
Видим.   Явления Облачность Т
(С)
Тd
(С)
f
(%)
Тe
(С)
Тes
(С)
Комфортность P
(гПа)
Po
(гПа)
Тmin
(С)
Tmax
(С)
R
(мм)
R24
(мм)
S
(см)
15 13.07 СВ 1 10 км 3/3 600 м
[Cu hum Ac cuf]
+27.3 +11.3 37 +28 +32 жарко 1012.6 1011.9
18 13.07 СВ 1 10 км 3/1 600 м
[Cu hum Ci fib]
+24.3 +9.8 40 +25 +25 комфорт 1012.7 1012.0 +29.0
21 13.07 штиль 0 10 км 4/0
[Ac trans Ci fib]
+19.8 +12.5 63 +21 +21 комфорт 1013.1 1012.4
00 14.07 штиль 0 10 км ясно +17.6 +14.3 81 +18 +18 тепло 1012.5 1011.8
03 14.07 штиль 0 10 км 4/0
[Ac trans Ci fib]
+17.2 +14.5 84 +17 +18 по сезону 1012.4 1011.7 +16.6
06 14.07 С 1 10 км 9/0
[Ac trans]
+22.0 +15.5 67 +26 +29 душно 1012.2 1011.5 +16.6
09 14.07 ЮЗ 2 10 км 6/4 600 м
[Cu med, cong Ac trans]
+24.3 +17.2 65 +28 +34 душно 1011.9 1011.2
12 14.07 СЗ 1 10 км {гроза, ливн. осадки} 8/5 600 м
[Cu med, cong Ac cast]
+26.9 +17.2 55 +31 +35 душно 1011.0 1010.3
15 14.07 СВ 1 10 км 3/3 600 м
[Cu med, cong]
+27.7 +11.1 36 +29 +32 жарко 1009.9 1009.2
18 14.07 С 1 10 км ясно +24.9 +11.7 44 +26 +27 жарко 1010.3 1009.6 +27.8 0.6
21 14.07 С 1 10 км ясно +19.9 +13.2 65 +23 +23 комфорт 1011.0 1010.3
00 15.07 С 1 10 км ясно +16.9 +13.9 82 +18 +18 тепло 1011.1 1010.4
03 15.07 штиль 0 10 км ясно +17.4 +15.3 87 +17 +18 по сезону 1011.4 1010.7 +16.4
06 15.07 З 1 10 км ясно +24.7 +15.2 55 +28 +35 душно 1011.9 1011.2 +16.4
09 15.07 ЮЗ 2 10 км 3/3 600 м
[Cu med, cong]
+26.4 +14.3 47 +29 +38 жарко 1012.4 1011.7
12 15.07 С 2 10 км 3/3 600 м
[Cu med, cong]
+29.5 +8.8 27 +29 +37 жарко 1011.6 1010.9
15 15.07 С 2 10 км ясно +28.8 +8.4 28 +28 +33 жарко 1011.7 1011.0
18 15.07 штиль 0 10 км 3/0
[Ci fib]
+25.5 +9.0 35 +26 +26 жарко 1012.8 1012.1 +30.0
21 15.07 С 1 10 км 1/0
[Ci fib]
+19.6 +13.7 69 +22 +22 комфорт 1013.8 1013.1
00 16.07 штиль 0 10 км ясно +18.2 +15.4 84 +18 +18 тепло 1014.3 1013.5
03 16.07 С 1 10 км ясно +18.8 +16.5 86 +21 +22 комфорт 1014.8 1014.1 +17.4
06 16.07 С 1 10 км ясно +26.0 +12.4 43 +28 +35 жарко 1015.1 1014.4 +17.4
09 16.07 СВ 2 10 км ясно +29.6 +12.0 34 +30 +43 жарко 1014.9 1014.2
12 16.07 СВ 2 10 км ясно +29.9 +10.8 31 +30 +42 жарко 1014.6 1013.9
15 16.07 СВ 2 10 км ясно +29.4 +10.0 30 +29 +34 жарко 1014.2 1013.5
18 16.07 СВ 1 10 км ясно +27.0 +9.9 34 +27 +28 жарко 1014.7 1014.0 +30.7
21 16.07 СВ 1 10 км ясно +23.2 +12.1 50 +26 +26 жарко 1015.2 1014.5
00 17.07 штиль 0 10 км ясно +21.0 +14.9 68 +24 +24 комфорт 1015.4 1014.7
03 17.07 штиль 0 10 км ясно +21.4 +14.8 66 +24 +26 комфорт 1015.9 1015.2 +20.4
06 17.07 С 1 10 км ясно +26.2 +14.1 47 +28 +36 жарко 1016.1 1015.4 +20.4
09 17.07 СВ 1 10 км 1/1 300 м
[Cu hum]
+29.8 +12.4 34 +31 +44 жарко 1015.9 1015.2
12 17.07 В 2 10 км ?/? +30.4 +11.3 31 +31 +31 жарко 1015.3 1014.6
15 17.07 СВ 2 10 км ясно +29.5 +10.6 31 +30 +34 жарко 1014.3 1013.6
18 17.07 СВ 2 10 км ясно +27.0 +12.6 41 +29 +29 жарко 1014.2 1013.5 +30.7
21 17.07 СВ 1 10 км ясно +23.9 +13.4 52 +26 +26 жарко 1014.9 1014.2
00 18.07 СВ 1 10 км ясно +22.4 +13.9 59 +26 +26 жарко 1014.7 1014.0
03 18.07 СВ 1 10 км ясно +21.3 +14.8 66 +24 +25 комфорт 1014.6 1013.9 +21.2
06 18.07 СВ 2 10 км ясно +23.8 +14.7 57 +27 +33 жарко 1014.9 1014.2 +21.2
09 18.07 СВ 2 10 км ясно +25.6 +15.8 55 +29 +42 душно 1014.4 1013.7
12 18.07 СВ 2 10 км ясно +27.8 +14.5 44 +30 +41 жарко 1013.5 1012.8
15 18.07 СВ 2 10 км ясно +27.3 +13.6 43 +29 +33 жарко 1012.8 1012.1
18 18.07 СВ 2 10 км 4/0
[As trans Cs]
+24.8 +13.4 49 +27 +27 жарко 1012.9 1012.2 +27.9
21 18.07 СВ 2 10 км 3/0
[Cs]
+22.5 +11.1 48 +25 +25 комфорт 1013.0 1012.3
00 19.07 СВ 1 10 км 5/0
[Ac trans]
+21.1 +12.0 56 +23 +23 комфорт 1013.0 1012.3
03 19.07 СВ 1 10 км 6/0
[Cs]
+20.4 +13.8 66 +24 +25 комфорт 1012.7 1012.0 +20.2
06 19.07 СВ 1 10 км 3/0
[Cs]
+23.6 +15.0 59 +26 +34 жарко 1012.4 1011.7 +20.2
09 19.07 СВ 2 10 км 1/1 600 м
[Cu hum]
+25.6 +15.3 53 +29 +40 душно 1012.1 1011.4
12 19.07 СВ 2 10 км 8/3 600 м
[Cu hum Ac cast Cs]
+25.4 +14.3 50 +28 +33 жарко 1012.1 1011.4
15 19.07 СВ 2 10 км 5/0
[Ac trans Cs]
+26.2 +14.6 49 +29 +32 жарко 1011.4 1010.7
18 19.07 СВ 1 10 км 9/0
[Ac trans Cs]
+24.6 +14.7 54 +27 +27 жарко 1011.8 1011.1 +27.2
21 19.07 СВ 1 10 км слабый дождь {ливн. осадки} 10/10 300 м
[Frnb]
+19.6 +17.3 87 +23 +23 комфорт 1012.0 1011.3
00 20.07 С 1 4000 м дождь {ливн. осадки} 10/10 200 м
[Frnb Ns]
+18.9 +17.8 93 +21 +21 комфорт 1011.1 1010.4
03 20.07 СВ 1 10 км {дождь} 10/0
[Ac As Cc]
+19.9 +16.5 81 +24 +24 комфорт 1010.2 1009.5 +18.9 4
06 20.07 СВ 1 10 км {дождь} 8/0
[Ci fib]
+23.6 +17.6 69 +28 +32 душно 1009.3 1008.6 +18.9 4
09 20.07 СВ 2 10 км 6/6 1000 м
[Cu hum]
+25.6 +16.4 57 +29 +34 душно 1008.7 1008.0

 

Местоположение метеостанции Санкт-Петербург (город Санкт-Петербург, Россия): широта 59.97 долгота 30.30 высота над уровнем моря 6 м.

В архиве по умолчанию представлена погода в Санкт-Петербурге за последнюю неделю. Архивные данные за месяц целиком и за предыдущие месяцы, начиная с января 2011 года, Вы можете получить, выбрав интересующий диапазон дат из раскрывающегося списка и нажав кнопку "Ввод!".


*Определитесь, кто Вы:
робот инопланетянин человек

Внимание! Время в таблицах - всемирное. Для получения местного времени необходимо прибавить поправку, которая в Санкт-Петербурге равна 3 ч.

Смотрите также архив погоды в соседних городах и на ближайших метеорологических станциях:

Погода в Лисьем Носу (город Санкт-Петербург, Россия) (19 км)
Погода в Воейково (город Санкт-Петербург, Россия) (22 км)
Погода в Ломоносове (город Санкт-Петербург, Россия) (29 км)
Погода в Кронштадте (город Санкт-Петербург, Россия) (30 км)
Погода в Шлиссельбурге (Ленинградская область, Россия) (39 км)
Погода в Рощино (Ленинградская область, Россия) (48 км)
Погода в Шепелево (Ленинградская область, Россия) (58 км)
Погода в Сосново (Ленинградская область, Россия) (65 км)
Погода в Сосновом Бору (Ленинградская область, Россия) (65 км)
Погода в Белогорке (Ленинградская область, Россия) (70 км)

Пояснения к столбцам:

Ветер - указаны скорость ветра в м/с - средняя за 10 мин, порывы в срок и между сроками (в фигурных скобках) и направление, откуда дует ветер: С - северный, СВ - северо-восточный, В - восточный, ЮВ - юго-восточный, Ю - южный, ЮЗ - юго-западный, З - западный, СЗ - северо-западный.
Видимость - горизонтальная дальность видимости в метрах или километрах. При видимости от 1 до 10 км при отсутствии осадков обычно наблюдается дымка, при ухудшении видимости до 1 км и менее - туман. В сухую погоду видимость может ухудшаться дымом, пылью или мглою.
Явления - указаны атмосферные явления, наблюдавшиеся в срок или в последний час перед сроком; фигурными скобками обозначены явления, наблюдавшиеся между сроками (за 1-3 часа до срока); квадратными скобками обозначены град или гололедные отложения с указанием их диаметра в мм.
Облачность - указаны через наклонную черту общая и нижняя облачность в баллах и высота нижней границы облаков в метрах; квадратными скобками обозначены формы облаков: Ci - перистые, Cs - перисто-слоистые, Cc - перисто-кучевые, Ac - высококучевые, As - высокослоистые, Sc - слоисто-кучевые, Ns - слоисто-дождевые, Cu - кучевые, Cb - кучево-дождевые. Подробнее классификацию облаков см. в Атласе облаков (PDF).
T - Температура воздуха - температура, измеренная на высоте 2 м над землей.
Td - Температура точки росы - температура, при понижении до которой содержащийся в воздухе водяной пар достигнет насыщения.
f - Относительная влажность воздуха - влажноcть воздуха, измеренная на высоте 2 м над землей.
Te - Эффективная температура - температура, которую ощущает одетый по сезону человек в тени. Характеристика душности погоды. При расчете учитывается влияние влажности воздуха и скорости ветра на теплоощущения человека.
Tes - Эффективная температура на солнце - температура, которую ощущает человек, с поправкой на солнечный нагрев. Характеристика знойности погоды. Зависит от высоты солнца над горизонтом, облачности и скорости ветра. Ночью, в пасмурную погоду, а также при ветре 12 м/с и более поправка равна нулю.
P - Атмосферное давление - приведенное к уровню моря атмосферное давление.
Po - Атмосферное давление - измеренное на уровне метеостанции атмосферное давление.
Tmin - Минимальная температура - минимум температуры воздуха на высоте 2 м над землей.
Tmax - Максимальная температура - максимум температуры воздуха на высоте 2 м над землей.
R - Количество осадков - Количество выпавших осадков за период времени, мм. При наведении курсора мыши на число - период времени, за который выпало указанное количество осадков.
R24 - Количество осадков - Количество выпавших осадков за 24 часа, мм.
S - Снежный покров - Высота снежного покрова, см. При наведении курсора мыши на число - состояние снежного покрова и степень покрытия местности в баллах.